Weather in Dhermi

Albania     40°09′06″N   19°38′30″E
temp.,
°C
wind,
m/s
gust,
m/s
humid.,
%
clouds,
%
prec.,
mm/h
press.,
hPa
HPBL,
m
6 march, sat
sat601:00+5sse459684 0.1 1021118
04:00+6sse3494100 0.8 1020190
07:00+6se2494100 2.6 1021232
10:00+6ne1196100 2.1 1022125
13:00+9nnw227898 2.4 1022615
16:00+8nnw338696 0.6 1022448
19:00+6n239582 0.9 1023101
22:00+5ne11925 0.0 102522
7 march, sun
sun701:00+4nne22902 0.0 102522
04:00+4nne22910 0.0 102422
07:00+5ne22900 0.0 102524
10:00+10n11600 0.0 1024684
13:00+11nw32610 0.1 10231168
16:00+9nnw437632 0.3 1021555
19:00+5nne129018 0.3 102124
22:00+5e11810 0.0 102122
8 march, mon
mon801:00+4se11750 0.0 102022
04:00+4sse22840 0.0 101822
07:00+5sse23861 0.0 101848
10:00+9sse327393 0.0 1017584
13:00+10s227080 0.3 1016799
16:00+10ssw217173 0.7 1015635
19:00+7ese119071 0.8 101647
22:00+6s229695 0.0 101656
9 march, tue
tue901:00+5sse129490 0.0 101527
04:00+5e128682 0.0 101422
07:00+6sse117987 0.0 101422
10:00+10w116290 0.0 1015772
13:00+12w115881 0.0 10141111
16:00+11wnw217092 0.1 1013463
19:00+7ssw018792 0.1 101422
22:00+7s2275100 0.0 101426
10 march, wed
wed1001:00+6s2270100 0.0 101426
04:00+7w1299100 3.4 1014134
07:00+6n2398100 11.1 1015188
10:00+6n2294100 1.6 1016231
13:00+8n2285100 1.9 1016449
16:00+8n3385100 1.2 1016491
19:00+6n339599 1.8 1017106
22:00+5nne229423 0.0 102027